This is the latest recevied weather packets stored in our database for station/object KF4CQ. If no packets are shown the sender has not sent any weather packets the latest 10 day(s).
| Time | Temp. | Humidity | Pressure | Rain* | Wind** | Luminosity | Snow |
|---|---|---|---|---|---|---|---|
| 1778072210 | 24.44° C | 85% | 1018.3 hPa | 0 mm | - | 101 W/m² | - |
| 1778071907 | 24.44° C | 84% | 1018.2 hPa | 0 mm | - | 99 W/m² | - |
| 1778071605 | 23.89° C | 85% | 1018.1 hPa | 0 mm | - | 89 W/m² | - |
| 1778071302 | 23.89° C | 86% | 1018 hPa | 0 mm | - | 76 W/m² | - |
| 1778071000 | 23.89° C | 85% | 1018.1 hPa | 0 mm | - | 66 W/m² | - |
| 1778070698 | 23.89° C | 85% | 1018.1 hPa | 0 mm | - | 74 W/m² | - |
| 1778070395 | 22.78° C | 87% | 1018 hPa | 0 mm | - | 72 W/m² | - |
| 1778070092 | 22.78° C | 87% | 1017.9 hPa | 0 mm | - | 63 W/m² | - |
| 1778069790 | 22.78° C | 86% | 1018.2 hPa | 0 mm | - | 54 W/m² | - |
| 1778069486 | 22.22° C | 87% | 1017.9 hPa | 0 mm | - | 47 W/m² | - |
| 1778069184 | 21.11° C | 89% | 1017.8 hPa | 0 mm | - | 45 W/m² | - |
| 1778068881 | 20° C | 91% | 1017.8 hPa | 0 mm | - | 42 W/m² | - |
| 1778068580 | 19.44° C | 92% | 1018 hPa | 0 mm | - | 36 W/m² | - |
| 1778068277 | 18.89° C | 94% | 1017.8 hPa | 0 mm | - | 34 W/m² | - |
| 1778067974 | 18.33° C | 94% | 1017.7 hPa | 0 mm | - | 33 W/m² | - |
| 1778067673 | 18.33° C | 95% | 1017.8 hPa | 0 mm | - | 33 W/m² | - |
| 1778067370 | 17.78° C | 96% | 1017.6 hPa | 0 mm | - | 32 W/m² | - |
| 1778067067 | 17.78° C | 96% | 1017.7 hPa | 0 mm | - | 29 W/m² | - |
| 1778066764 | 17.22° C | 97% | 1017.6 hPa | 0 mm | - | 25 W/m² | - |
| 1778066462 | 17.22° C | 97% | 1017.6 hPa | 0 mm | - | 22 W/m² | - |
| 1778066159 | 16.67° C | 97% | 1017.5 hPa | 0 mm | - | 17 W/m² | - |
| 1778065856 | 16.67° C | 97% | 1017.5 hPa | 0 mm | - | 14 W/m² | - |
| 1778065554 | 16.67° C | 97% | 1017.5 hPa | 0 mm | - | 11 W/m² | - |
| 1778065251 | 16.67° C | 97% | 1017.2 hPa | 0 mm | - | 8 W/m² | - |
| 1778064947 | 16.67° C | 97% | 1017.2 hPa | 0 mm | - | 6 W/m² | - |
* Rain latest hour (hover to see other rain measurements)
** Current wind speed in m/s (hover to see current wind gust speed)